GEFSNGP_500_meanwind_024.txt.gz
Wind_Speed
25 26 28 27 27 29 30 30 31 30 30 30 30 31 32 33 34 35 35 34 30 27 22 20 19 18 21 23 25 26 27 26 26 27 28 29 30 31 31 30 30 30 30 29
25 26 30 29 29 32 33 32 32 31 30 30 30 30 30 31 31 31 30 29 25 22 20 17 16 18 19 20 21 23 24 24 25 26 27 28 28 29 28 28 28 29 29 28
24 25 29 28 28 31 32 31 30 29 29 29 29 29 29 28 27 27 26 25 22 20 18 17 16 15 16 18 20 21 22 23 24 25 26 27 27 27 27 27 27 27 27 26
25 25 26 24 26 29 30 29 29 29 29 29 29 28 27 26 25 24 23 21 19 17 16 16 15 15 15 17 18 20 20 21 22 23 24 25 25 24 25 24 24 24 23 23
25 25 24 20 24 27 29 27 28 30 31 31 29 27 26 24 22 21 20 19 17 15 14 14 14 14 14 15 16 17 18 18 19 20 21 21 21 21 21 20 20 19 18 18
26 28 26 22 24 26 27 25 26 28 29 30 29 27 25 23 21 19 18 16 15 14 13 12 12 12 12 12 13 14 14 15 16 17 17 17 17 16 16 15 15 15 16 17
28 29 27 26 26 26 26 26 27 27 28 28 29 27 24 22 19 17 16 15 14 13 12 11 10 10 10 10 11 12 12 12 13 13 13 13 12 12 12 12 13 13 14 14
28 28 27 28 28 27 27 27 27 27 27 28 28 27 25 22 19 17 14 13 13 12 11 10 9 9 9 9 9 10 9 9 10 10 10 10 10 10 11 11 11 12 12 12
31 29 29 29 30 30 29 28 28 28 27 28 27 27 25 23 21 18 15 13 13 12 11 10 9 9 8 8 8 7 7 7 8 8 9 10 10 10 11 11 11 11 11 11
32 30 31 31 32 32 32 31 30 29 28 27 27 27 27 25 22 19 17 15 14 13 12 11 10 9 9 8 7 7 6 6 6 7 8 9 10 10 11 12 12 12 12 13
33 31 32 31 32 33 33 33 31 30 29 28 27 27 27 26 25 23 20 18 17 15 13 12 12 11 9 9 8 7 7 7 7 7 8 9 10 11 12 12 13 13 13 13
36 34 34 32 33 33 34 33 32 30 29 28 27 27 28 27 27 26 23 21 20 19 17 16 15 13 12 11 10 9 9 9 9 9 10 10 11 12 12 13 13 14 14 14
40 38 36 34 34 35 35 34 32 31 29 27 26 26 26 27 27 27 26 24 23 22 21 20 19 17 16 15 13 13 12 12 12 12 12 13 13 14 14 14 14 15 15 15
41 40 38 36 35 35 35 35 33 31 29 27 25 25 25 26 27 27 26 26 26 25 25 25 23 22 21 19 18 17 16 15 15 15 15 15 15 15 16 16 16 15 15 15
43 42 40 38 36 35 36 35 34 32 30 28 26 25 25 25 26 27 27 27 27 26 26 26 27 26 24 23 22 21 20 19 18 17 17 17 17 17 17 17 16 16 15 15
42 41 40 40 38 37 36 36 35 33 31 29 27 26 25 25 25 26 27 27 26 26 25 25 26 27 26 26 25 24 23 22 21 20 19 18 18 18 18 18 18 17 16 15
43 42 41 40 40 39 39 39 38 37 34 32 31 29 27 27 27 27 27 27 26 25 24 24 24 24 25 26 26 26 26 25 24 23 22 21 20 20 20 20 19 18 17 16
45 45 44 43 41 41 40 41 41 40 39 36 34 33 31 29 28 27 26 27 26 25 24 24 23 22 22 23 24 25 26 26 26 25 25 23 22 22 21 21 20 19 18 17
48 48 48 47 46 45 44 43 42 43 43 41 39 37 35 32 31 30 29 29 27 25 25 26 25 23 22 21 21 22 23 24 25 26 26 25 24 23 23 22 21 20 19 18
55 54 54 54 53 52 49 46 44 44 44 44 43 42 39 36 34 32 31 30 27 26 27 29 28 26 24 23 23 22 22 22 23 25 26 26 25 25 24 23 22 21 20 19
62 63 63 62 61 60 57 52 48 46 45 45 44 44 42 39 37 35 33 30 28 27 28 30 30 29 28 27 25 23 22 22 22 22 24 25 25 25 24 23 22 21 21 20
67 69 70 70 70 69 67 65 61 57 53 50 47 46 46 44 41 38 36 33 30 29 29 29 30 30 30 30 28 26 24 23 22 22 22 23 23 23 23 23 22 22 21 21
63 65 66 68 69 71 72 71 69 67 63 60 57 52 48 47 44 41 39 37 34 32 30 29 30 31 32 32 30 28 26 25 24 22 22 22 22 22 22 22 22 22 22 22
56 55 55 56 58 61 64 67 69 69 67 65 63 60 55 50 46 44 42 40 38 36 33 31 31 31 32 33 32 30 28 27 25 23 22 21 21 21 22 22 22 22 22 22
49 48 48 47 47 48 50 53 55 58 60 61 61 59 58 54 50 47 46 44 41 39 36 34 34 34 34 33 33 31 29 28 26 24 23 21 21 21 21 21 22 22 22 21
41 39 37 35 34 34 34 36 38 41 43 46 49 50 50 50 49 46 45 43 41 39 37 36 35 36 35 34 33 31 30 28 27 25 23 21 20 20 20 21 21 21 21 21
32 31 30 29 29 28 28 27 26 27 29 31 34 37 39 41 42 42 42 41 39 39 38 37 36 35 35 35 34 32 30 29 27 25 23 21 20 19 19 20 21 21 21 21

GEFSNGP_500_meanwind_030.txt.gz
Wind_Speed
16 18 21 22 23 26 29 30 32 33 34 34 36 37 37 36 35 33 31 31 31 30 29 29 28 27 26 25 24 23 22 20 19 20 20 21 22 23 24 24 25 25 26 26
17 20 21 20 21 24 27 28 30 31 31 31 33 33 33 33 32 31 30 30 28 27 27 26 25 24 23 22 20 19 18 18 17 16 16 16 18 19 19 20 21 21 22 22
18 21 22 21 23 25 26 26 28 29 29 29 31 31 31 30 30 30 29 28 26 25 25 24 23 22 20 19 18 17 17 16 15 15 15 16 16 15 15 16 17 17 18 18
22 23 22 23 26 27 28 27 28 29 29 30 31 31 30 30 29 28 27 26 25 24 23 22 21 20 18 18 17 15 14 13 13 13 13 13 12 12 11 12 13 13 14 15
26 27 25 24 27 29 30 28 29 30 31 31 32 32 31 31 29 28 27 26 25 24 23 21 20 18 17 16 15 14 12 11 11 10 10 11 11 11 11 11 12 12 13 13
30 31 31 31 32 31 32 30 31 31 32 33 34 33 32 32 30 29 28 27 25 24 22 20 18 17 15 14 13 12 11 11 10 10 10 11 11 11 11 11 11 11 12 12
33 33 34 35 34 33 34 35 35 34 34 35 36 35 34 34 31 29 28 27 26 24 22 20 18 16 14 13 12 11 11 10 10 10 10 11 11 10 10 11 11 11 11 11
35 35 37 37 36 37 38 38 37 38 38 38 37 36 36 35 33 31 28 27 26 24 23 21 19 17 15 13 12 11 10 10 10 9 10 10 9 10 10 10 11 10 10 10
36 36 38 39 39 40 41 42 41 41 40 40 39 38 37 36 34 32 30 27 26 26 24 23 21 18 16 14 13 12 11 10 9 8 8 9 9 10 11 11 10 10 10 10
38 39 40 41 43 44 44 43 43 43 42 41 40 39 37 36 35 33 31 28 27 27 26 24 22 20 17 15 14 13 12 11 10 9 8 9 9 10 10 11 11 11 11 11
42 43 44 45 46 47 46 46 45 44 43 42 41 39 37 36 35 33 31 29 27 27 27 26 25 23 20 18 16 14 13 12 11 11 10 10 10 10 11 12 12 12 12 13
46 48 49 50 51 51 50 49 47 46 44 43 42 40 38 36 35 33 31 30 28 28 28 27 27 25 23 21 18 17 16 15 14 13 12 12 12 12 12 12 13 13 13 14
51 52 53 54 54 53 52 50 49 47 46 44 42 40 39 37 35 34 32 30 29 28 28 28 28 27 26 24 22 20 19 19 18 17 16 15 15 15 14 14 14 15 15 16
54 53 53 53 53 53 52 51 50 48 46 45 44 42 40 39 36 34 32 31 30 29 28 28 28 28 28 28 26 25 23 22 21 20 20 19 18 18 17 17 17 17 17 17
54 55 54 54 53 53 54 53 51 50 49 48 46 44 44 42 39 37 34 33 32 30 28 28 28 29 29 29 28 28 27 26 25 24 23 22 22 21 21 20 20 19 19 18
57 57 57 58 58 58 58 57 56 55 53 52 50 47 46 44 41 40 36 35 34 31 29 29 28 29 30 29 28 28 28 28 28 27 26 26 25 24 24 23 23 22 21 20
60 60 61 63 64 63 63 62 62 62 59 56 53 51 49 45 41 41 39 37 35 34 33 31 30 29 28 28 28 27 28 29 29 29 28 28 27 27 26 26 25 24 24 22
63 63 65 66 67 65 61 60 60 60 60 59 57 55 52 47 43 40 40 40 38 36 34 32 31 30 28 28 28 28 27 27 27 27 27 27 27 28 28 28 27 27 26 25
64 65 65 64 64 64 62 60 58 56 56 55 56 56 54 50 46 44 41 40 40 38 36 34 33 31 29 26 26 26 25 24 24 24 25 26 26 26 27 28 29 28 28 27
60 59 59 58 57 56 54 51 50 48 47 48 49 50 50 50 49 47 44 42 42 41 40 38 35 32 30 28 26 24 23 23 22 22 22 22 23 23 24 26 27 28 28 28
53 52 51 49 48 46 45 45 44 42 40 40 41 41 43 44 45 45 45 44 43 43 43 42 37 34 32 30 28 26 25 23 22 21 21 21 21 21 21 23 24 26 27 27
48 47 46 44 44 42 41 41 41 39 37 36 36 36 37 39 42 44 45 44 44 45 44 42 40 36 34 32 31 29 27 25 24 23 22 21 21 20 20 21 22 23 25 26
45 44 43 42 42 41 40 40 39 38 36 34 32 30 31 33 37 41 43 44 44 44 44 42 39 37 35 34 32 29 27 26 25 24 23 22 21 21 21 21 21 21 22 24
42 41 41 40 40 40 40 40 38 36 34 32 30 27 25 26 30 36 41 42 44 44 44 44 41 38 35 33 31 29 27 26 25 25 24 23 22 21 21 21 21 21 21 21
39 39 39 39 39 40 40 38 36 35 33 31 27 24 21 21 26 30 36 40 42 43 43 44 43 40 37 34 32 29 27 26 25 24 24 24 23 22 21 21 20 20 20 20
38 38 39 39 39 39 38 37 35 33 32 29 26 23 20 18 21 27 33 37 39 40 41 42 42 40 37 34 33 31 29 27 26 25 25 24 23 22 22 21 20 19 19 20
36 36 36 36 35 35 35 36 36 33 31 29 26 22 19 16 17 23 30 35 38 40 40 40 39 37 36 34 31 29 28 27 26 25 25 25 25 24 23 21 21 20 19 19

GEFSNGP_500_meanwind_036.txt.gz
Wind_Speed
12 14 16 17 18 20 23 24 27 28 29 30 32 35 36 37 37 37 38 38 39 38 37 36 35 35 34 34 34 33 32 31 30 29 28 27 25 24 22 21 21 21 22 24
14 16 18 19 20 21 22 24 26 29 31 33 35 36 37 37 38 38 39 39 38 38 38 36 34 33 33 32 32 31 30 29 28 26 24 23 21 19 18 17 17 16 16 18
17 18 20 21 21 24 24 24 28 32 35 36 37 37 37 38 39 40 39 39 38 38 37 37 35 33 32 32 30 29 28 26 25 23 22 20 18 16 15 14 13 11 11 12
22 22 22 19 25 28 28 29 32 35 37 37 38 39 38 40 43 44 42 41 40 39 39 37 36 34 32 31 30 27 26 24 23 21 20 19 17 14 13 11 10 9 9 10
26 26 26 27 31 32 31 34 37 38 40 40 41 42 42 44 45 45 45 44 42 41 39 38 36 34 33 31 29 27 25 23 21 19 18 17 15 13 11 10 9 8 8 8
28 29 30 33 35 35 36 41 43 44 45 47 48 49 48 47 47 46 46 46 44 43 40 37 36 34 33 31 28 27 25 22 21 19 17 16 14 13 12 10 9 8 8 8
34 35 36 40 39 40 42 46 47 49 50 51 52 53 53 52 50 48 47 46 45 44 41 37 36 34 33 31 29 26 23 22 20 19 17 16 14 13 12 11 10 10 9 9
35 37 40 43 44 46 48 51 53 54 56 56 57 56 55 54 53 50 48 47 45 43 42 38 35 34 33 32 29 26 24 22 20 19 18 16 15 15 13 12 11 10 10 9
38 41 44 46 48 50 53 55 57 58 60 61 61 60 59 58 55 52 49 46 44 42 41 39 36 34 32 31 29 27 25 23 22 20 18 17 16 15 14 13 12 11 10 10
42 45 48 51 52 55 57 59 61 62 63 63 63 63 62 61 57 53 50 46 44 41 40 38 36 34 32 31 30 28 26 25 23 21 19 18 17 15 14 14 13 12 11 11
45 48 51 54 56 58 60 62 64 65 65 65 66 65 64 63 59 55 50 47 45 42 40 39 38 34 33 31 30 29 28 26 24 23 21 19 17 16 15 14 14 13 12 12
51 53 56 58 60 62 64 65 67 68 68 68 68 68 66 63 60 55 51 49 46 45 43 41 39 35 32 31 30 30 29 28 26 24 22 20 19 17 16 16 15 15 14 13
55 57 60 62 64 65 67 68 69 69 70 69 67 67 65 61 56 52 49 48 47 46 44 43 41 35 33 31 30 30 30 29 28 26 24 22 21 19 18 17 17 16 15 15
58 61 62 64 66 67 67 67 68 67 66 64 61 58 57 54 53 51 48 45 45 45 43 43 41 38 34 32 31 30 30 31 29 28 27 25 24 22 20 19 18 17 16 16
62 64 66 67 67 66 65 63 61 58 55 53 51 50 51 49 47 46 45 44 43 43 42 42 42 38 34 34 33 31 30 31 31 30 28 27 26 24 23 22 21 20 19 18
64 65 66 66 66 63 60 55 52 50 48 47 47 47 46 45 43 40 38 39 40 40 41 41 40 38 36 35 34 32 31 31 32 32 31 28 27 26 25 23 23 22 20 20
66 66 66 65 62 57 52 49 48 47 46 47 47 45 43 41 39 37 34 33 34 35 37 39 40 39 37 37 36 32 30 31 32 33 33 32 29 28 27 26 25 24 22 21
66 65 63 60 55 50 46 45 45 45 46 47 46 44 42 40 37 34 31 30 29 30 33 37 39 39 38 38 36 32 30 30 32 32 31 32 31 30 29 28 28 26 25 24
63 60 56 52 49 45 44 44 44 44 44 45 44 43 40 37 35 31 29 27 25 26 29 34 38 38 38 38 37 34 31 29 29 30 30 30 30 29 29 29 28 27 25 23
57 53 50 46 42 41 41 42 42 42 43 43 43 42 40 37 35 32 28 25 23 24 27 32 36 38 40 40 39 36 32 27 26 27 27 27 27 27 27 27 26 26 24 21
52 48 44 41 39 38 39 40 41 41 41 42 43 43 41 38 35 32 28 23 21 23 27 30 34 38 39 39 40 37 33 28 26 24 24 24 24 23 23 22 22 22 21 19
47 43 41 39 37 36 36 38 39 40 40 41 42 42 40 38 34 30 26 21 20 22 26 29 32 36 38 38 38 37 35 31 27 25 22 21 20 20 20 19 18 18 17 17
43 41 39 37 35 35 35 36 38 39 40 40 40 40 40 38 34 29 23 19 17 21 25 29 31 35 36 37 38 37 34 32 28 25 22 20 19 19 18 17 16 16 15 15
41 38 36 34 33 33 34 34 35 37 39 40 39 39 39 37 34 28 23 17 15 19 23 29 32 34 35 37 39 39 36 32 28 25 23 22 20 19 18 18 17 16 15 15
38 36 34 32 31 31 32 32 34 37 39 39 38 38 37 35 32 26 20 15 13 17 22 28 32 34 34 35 37 38 35 32 30 27 25 23 21 20 19 18 17 17 16 16
36 34 32 31 30 30 31 33 36 38 38 38 38 38 36 33 29 23 18 13 13 16 21 27 32 33 33 34 35 36 34 32 30 28 26 23 22 21 20 18 18 17 17 16
35 32 30 28 27 28 30 33 36 37 38 39 39 38 34 31 27 22 16 11 13 17 22 26 30 32 34 34 34 34 33 32 30 28 26 24 23 21 20 19 18 17 16 16

GEFSNGP_500_meanwind_042.txt.gz
Wind_Speed
13 16 18 19 20 22 25 27 28 29 30 30 31 32 33 35 38 40 42 43 44 45 45 45 44 44 42 41 40 39 38 37 35 34 33 32 31 30 29 27 26 24 24 23
15 19 21 23 24 26 27 27 28 30 31 32 34 36 38 41 43 45 46 47 48 49 49 49 48 47 45 43 41 40 38 36 35 34 33 31 29 28 27 25 23 21 20 19
19 21 22 25 26 26 27 28 29 31 33 34 37 41 44 46 48 50 51 53 53 54 53 52 51 50 49 46 43 41 39 37 35 33 32 30 28 26 25 23 21 20 17 16
22 23 25 27 27 27 28 29 30 33 36 39 42 45 48 51 53 55 57 58 58 58 58 57 55 53 51 49 45 42 40 37 35 33 31 30 27 25 23 21 19 17 15 15
28 29 28 28 29 30 32 34 35 38 42 45 48 50 53 55 58 60 61 62 62 62 62 61 60 57 54 51 47 43 40 38 35 33 31 29 26 24 21 20 17 15 13 12
31 32 32 32 31 34 38 41 42 46 50 53 55 58 58 60 61 62 63 64 64 64 64 63 61 59 55 51 48 44 40 38 35 32 31 29 26 23 21 19 17 15 13 11
32 34 37 37 38 40 43 47 49 53 56 59 61 63 65 66 67 67 68 68 68 67 66 65 62 60 56 52 49 46 42 39 36 33 31 28 25 23 21 19 17 15 13 11
34 37 39 41 44 46 48 51 54 57 60 63 65 67 68 69 70 71 71 70 70 69 66 63 60 58 54 52 49 46 43 40 38 35 31 28 25 24 22 20 18 16 14 12
37 40 43 46 48 51 53 56 59 61 64 66 69 70 71 72 72 71 71 69 67 64 60 57 55 54 52 50 48 47 45 42 39 36 32 29 26 24 22 21 19 16 15 13
41 43 46 49 51 53 56 59 62 65 68 71 72 73 73 73 72 69 65 61 57 55 53 51 50 50 49 48 47 47 47 43 40 36 33 31 28 25 23 21 19 18 16 15
44 46 48 51 53 56 59 63 65 68 71 73 73 72 71 68 63 57 53 50 48 48 47 46 45 45 46 47 46 45 44 43 41 38 35 32 29 27 25 23 21 19 18 17
45 48 51 54 56 60 63 66 68 70 71 70 68 65 60 54 50 47 45 43 45 45 44 43 43 41 42 43 44 43 43 44 41 38 36 34 31 29 27 25 23 21 20 19
47 50 54 58 61 64 67 69 70 70 67 64 59 54 48 44 43 42 42 43 44 44 43 43 41 38 38 39 40 39 40 42 41 38 36 36 33 30 28 26 24 22 21 20
52 56 60 63 66 69 71 71 68 63 58 53 49 45 42 41 40 40 41 43 44 43 43 41 38 35 34 35 36 37 39 40 39 38 38 36 34 32 30 27 25 24 22 21
57 61 65 68 70 71 70 66 60 54 49 45 42 39 38 38 39 39 41 42 42 41 41 38 35 32 30 30 32 35 37 37 37 37 38 37 35 33 31 29 27 26 24 22
61 64 68 70 70 68 64 59 54 49 44 40 37 37 36 37 38 39 40 41 41 40 38 35 32 27 25 26 28 32 35 35 37 37 38 37 35 34 32 29 27 26 25 23
66 69 71 72 70 66 60 54 49 45 41 38 37 36 36 37 38 39 39 40 41 39 37 33 27 23 22 22 26 29 32 34 36 37 38 37 35 34 32 30 28 27 26 25
69 70 70 69 66 61 55 49 45 41 38 37 36 36 36 38 39 40 40 40 39 37 35 30 23 20 19 21 24 28 31 34 35 36 37 35 34 34 32 30 28 27 26 25
69 69 67 64 60 56 50 46 42 39 37 36 36 36 37 39 41 41 41 40 39 36 31 26 21 17 18 21 24 28 30 34 35 35 36 35 34 33 33 31 29 27 26 24
67 65 62 58 54 49 45 42 39 37 35 35 35 36 38 39 40 41 40 39 37 33 28 23 18 14 16 20 24 29 31 33 34 34 34 34 33 33 32 31 29 27 25 25
64 61 57 54 48 43 40 39 38 35 33 34 36 37 39 40 40 41 40 37 33 30 24 19 15 13 17 22 26 30 31 34 34 34 33 32 32 32 32 30 29 28 26 25
61 57 53 49 43 39 37 36 35 34 33 35 36 39 40 40 40 40 38 35 30 27 21 15 12 13 18 24 28 30 32 34 33 32 32 30 30 30 30 29 27 26 26 25
57 53 49 45 40 37 35 34 33 33 34 36 38 40 41 41 40 39 37 32 28 24 18 11 10 14 21 26 29 31 33 33 32 31 29 28 27 26 26 25 25 24 24 23
53 49 45 42 39 36 33 32 31 33 35 36 39 41 42 41 39 38 35 30 25 20 13 8 11 16 23 28 31 32 33 33 33 30 28 26 25 24 23 23 22 22 21 20
50 46 43 40 37 34 32 31 31 33 34 36 39 40 40 40 38 35 31 26 21 15 7 6 13 19 25 30 31 33 33 34 33 30 28 25 23 22 21 21 21 20 19 18
48 45 41 39 37 34 33 32 33 34 36 37 38 39 39 37 34 32 28 22 16 9 2 8 15 22 27 30 32 33 34 34 33 30 28 25 23 21 19 19 18 18 17 17
46 42 39 36 33 32 32 32 34 35 37 39 39 39 37 34 32 30 24 17 10 3 4 11 18 23 28 31 34 35 34 34 33 31 27 25 23 21 19 17 16 16 16 16

GEFSNGP_500_meanwind_048.txt.gz
Wind_Speed
17 19 20 21 22 24 27 30 32 33 34 35 36 38 39 40 42 43 45 47 49 51 53 54 56 57 57 58 58 57 57 56 54 52 49 47 45 43 41 38 37 35 33 31
19 21 23 24 25 27 28 31 33 34 35 37 38 40 42 43 45 48 50 52 54 56 58 59 60 61 62 62 62 62 62 61 59 56 53 50 47 44 42 39 36 34 32 30
22 24 27 27 28 30 31 32 34 36 38 39 40 42 45 47 50 53 55 58 60 62 63 65 66 67 68 68 68 66 65 64 61 58 55 52 49 45 42 39 35 33 31 29
25 27 29 30 30 32 34 36 38 39 41 42 44 47 50 54 56 59 61 64 66 67 69 71 72 72 73 72 71 69 67 65 63 60 57 54 50 45 41 39 35 32 30 28
29 30 33 34 36 38 39 41 43 44 46 48 52 54 56 60 63 66 68 70 72 74 75 75 76 76 75 75 73 71 69 66 63 60 57 54 51 47 43 40 36 33 30 27
31 34 36 38 40 42 44 46 47 49 52 55 58 61 62 65 67 69 72 74 76 77 78 78 78 78 76 74 71 67 63 59 56 54 51 49 48 45 42 39 37 33 30 27
33 35 38 41 42 45 47 50 52 55 58 61 64 66 68 71 73 76 77 78 78 78 76 75 73 72 69 65 61 58 54 51 49 48 46 44 43 42 40 38 37 33 29 27
35 37 40 42 45 47 49 52 56 58 61 65 68 71 73 76 78 78 78 76 74 72 68 65 63 61 57 53 50 48 46 44 44 43 43 43 41 41 40 39 38 34 30 28
37 39 42 44 47 50 53 56 59 63 66 70 73 75 77 77 76 73 70 67 63 60 57 53 50 48 45 43 42 41 39 39 39 39 39 40 40 39 41 40 38 34 30 28
39 41 43 47 50 54 57 61 65 68 72 74 76 76 75 72 67 63 58 55 52 48 45 41 40 39 39 39 38 38 37 37 36 36 37 38 40 41 40 38 38 35 31 29
41 44 47 50 54 58 62 65 69 72 73 74 73 69 66 61 55 51 47 45 43 41 38 37 36 37 38 39 39 37 36 34 33 34 35 36 39 43 42 37 36 34 31 30
45 48 52 55 59 64 67 70 73 73 71 68 65 61 57 51 47 44 42 40 38 38 37 36 37 37 38 38 38 37 35 32 31 30 31 33 36 40 41 38 37 35 34 32
49 53 56 60 64 67 70 72 72 69 66 62 57 53 49 45 41 39 38 37 36 36 36 37 38 38 38 38 38 36 33 30 28 26 27 30 34 35 37 38 38 37 36 34
53 57 60 63 67 70 71 71 67 63 58 54 50 46 43 40 38 37 36 35 35 36 37 38 38 38 37 37 36 34 30 27 24 23 25 29 31 33 36 37 38 38 37 35
56 59 63 67 70 71 70 67 63 57 52 47 44 41 39 38 36 35 34 35 35 37 38 39 38 38 36 35 33 30 26 23 22 21 23 28 30 32 35 36 39 39 37 35
58 62 66 69 72 71 68 64 59 53 48 45 42 39 38 37 36 36 36 37 38 39 39 39 38 36 35 33 30 25 21 18 18 18 22 27 30 32 35 36 39 39 37 35
62 65 69 72 73 71 66 61 56 51 47 44 41 39 38 37 37 37 38 39 40 41 40 39 37 35 33 29 25 19 15 13 14 17 23 29 31 33 35 37 38 38 36 34
66 70 72 74 73 69 63 58 52 48 45 43 41 39 39 39 39 40 40 40 41 40 38 37 35 33 29 24 19 13 10 11 14 19 24 30 32 33 35 37 39 37 35 33
68 71 72 72 69 65 60 55 50 46 43 41 40 40 41 42 43 42 42 42 41 39 36 34 32 28 24 19 13 8 9 12 16 21 27 31 34 34 36 37 37 36 34 32
69 71 72 70 66 61 57 52 48 44 42 41 41 42 43 43 43 43 42 41 40 38 35 31 28 24 18 13 8 7 11 15 20 26 30 33 34 34 35 35 36 35 32 31
70 72 71 69 63 58 53 49 46 43 42 42 43 45 45 44 43 43 42 40 37 35 31 27 23 18 12 6 6 10 16 21 26 29 32 33 34 34 34 33 34 33 31 29
71 72 70 67 61 55 50 47 44 42 42 43 44 45 44 44 43 42 40 38 34 30 26 20 16 11 4 5 10 16 21 26 29 31 33 33 33 33 32 32 32 31 29 27
70 70 69 64 58 52 47 44 42 42 42 43 44 44 44 44 43 40 37 33 29 25 20 15 11 4 5 10 16 21 25 28 30 32 33 33 32 31 31 31 31 29 27 25
70 69 66 61 56 50 44 41 40 40 41 43 44 44 44 43 39 36 34 30 25 21 16 11 4 3 10 15 20 25 26 28 30 31 32 31 30 29 29 29 28 27 25 23
69 67 64 59 53 47 42 40 39 39 41 42 42 42 41 40 37 34 30 26 21 16 12 6 3 9 15 19 23 26 28 30 30 30 30 29 28 27 27 27 25 23 22 20
67 66 61 56 51 45 41 39 39 40 41 41 41 40 39 37 35 31 27 22 18 13 9 7 9 14 19 22 24 27 29 30 30 29 28 27 25 24 24 23 22 21 19 18
65 62 58 52 46 42 39 38 38 40 41 41 41 40 38 36 32 28 24 19 15 11 9 10 13 18 22 24 26 27 29 29 29 28 27 25 23 22 21 20 20 18 17 17